Regional Weather Roundup
Issued by NWS

Home | Current Version | Previous Version | Text Only | Print | Product List | Glossary On
Versions: 1 2 3 4 5 6 7 8 9 10 11 12 13 14 15 16 17 18 19 20 21 22 23 24 25 26 27 28 29 30 31 32 33 34 35 36 37 38 39 40 41 42 43 44 45 46 47 48 49 50
000
ASUS43 KLMK 291010
RWRKY
KENTUCKY REGIONAL WEATHER ROUNDUP
NATIONAL WEATHER SERVICE LOUISVILLE KY
500 AM EST THU JAN 29 2015

NOTE "FAIR" INDICATES FEW OR NO CLOUDS BELOW 12,000 FEET
WITH NO SIGNIFICANT WEATHER AND/OR OBSTRUCTIONS TO VISIBILITY.

KYZ001>023-026-027-061>063-070>075-291100-
WESTERN AND SOUTH CENTRAL KENTUCKY

CITY           SKY/WX    TMP DP  RH WIND       PRES   REMARKS
PADUCAH        CLOUDY    53  35  50 S12G24    29.89F
HENDERSON      CLOUDY    48  34  57 S18       29.87F
OWENSBORO      LGT RAIN  47  34  60 S15       29.91F
HOPKINSVILLE   CLOUDY    50  32  50 S13G24    29.97F
BOWLING GREEN  CLOUDY    47  26  44 S17       30.02F
GLASGOW        CLOUDY    43  23  45 S13       30.02F
$$

KYZ024-025-028>034-038-045-046-053-291100-
NORTH CENTRAL KENTUCKY

CITY           SKY/WX    TMP DP  RH WIND       PRES   REMARKS
LOUISVILLE/SDF LGT RAIN  43  28  55 S12       29.98F
LOUISVILLE/LOU LGT RAIN  42  27  55 S12G18    29.99F
FORT KNOX      LGT RAIN  40  32  71 S13       29.95F WCI  33
$$

KYZ035>037-039>044-047>052-055>060-089>105-291100-
NORTHEAST KENTUCKY

CITY           SKY/WX    TMP DP  RH WIND       PRES   REMARKS
LEXINGTON      MOCLDY    36  19  50 S15       30.01F WCI  27
COVINGTON      CLOUDY    36  21  54 S16       29.95F WCI  26
FRANKFORT      CLOUDY    37  18  46 S9        29.99F WCI  30
$$

KYZ054-064>069-076>088-106>120-291100-
SOUTHEAST KENTUCKY

CITY           SKY/WX    TMP DP  RH WIND       PRES   REMARKS
JACKSON        MOCLDY    32  18  56 S5        30.07F WCI  27
LONDON         MOCLDY    38  17  42 S9        30.09F WCI  31
SOMERSET       MOCLDY    36  18  48 S5        30.10S WCI  32
MIDDLESBORO    MOCLDY    33  22  65 S5        30.17F WCI  28
MONTICELLO     MOSUNNY   44  19  37 S16G22    30.09F
$$



USA.gov is the U.S. government's official web portal to all federal, state and local government web resources and services.